Location: Ebneth
(50.1606°N, 11.2460°E)
Time: 18:24:35
(UTC+00:00)

Daily predictions for brighter satellites

Satellite Brightness Start Highest point End
(mag) Time Altitude Azimuth Time Altitude Azimuth Time Altitude Azimuth
Meteor 1-5 Rocket 4.4 17:36:07 10° SSE 17:41:16 46° E 17:46:37 10° NNE
Okean 3 4.3 17:39:02 10° N 17:42:49 29° ENE 17:46:35 10° SE
SL-4 R/B 2.3 17:39:26 10° WNW 17:42:56 51° SSW 17:46:17 10° SE
COSMO-SKYMED 1 2.7 17:38:36 10° NNE 17:42:58 83° WNW 17:47:19 10° SSW
Cosmos 1980 Rocket 4.3 17:39:13 10° W 17:43:47 24° NW 17:48:23 10° NNE
IRS-1C Rocket 4.2 17:38:36 10° SSE 17:43:52 87° WSW 17:49:13 10° NNW
Cosmos 1536 4.2 17:42:18 10° SE 17:45:09 19° E 17:47:59 10° NE
SeaSat 1 3.7 17:41:57 10° ENE 17:45:30 20° ESE 17:49:02 10° SSE
FALCON 9 DEB 2.9 17:42:39 10° WNW 17:45:51 83° NNE 17:49:00 10° ESE
Cosmos 1633 Rocket 4.1 17:42:25 10° SSW 17:46:44 52° WNW 17:51:06 10° N
Cosmos 2242 Rocket 3.6 17:42:20 10° N 17:46:50 70° ENE 17:51:16 10° SSE
MOS 1 Rocket 4.1 17:43:04 10° N 17:48:12 67° WNW 17:53:31 10° SSW
Gbstr 26 Del rocket 3.3 17:46:04 10° W 17:50:27 75° N 17:55:46 10° E
Cosmos 2333 Rocket 2.5 17:48:55 10° S 17:54:17 45° ESE 17:59:43 10° NE
Abrixas rocket 2.7 17:52:00 10° W 17:54:18 34° SSW 17:56:35 10° SE
Resurs 01 Rocket 3.6 17:54:43 10° ENE 17:55:49 11° NE 17:56:55 10° NE
Meteor 2-4 Rocket 4.0 17:51:52 10° NNW 17:57:46 84° W 18:03:42 10° S
SAR-Lupe-1 4.4 17:54:58 10° NNE 17:58:25 42° E 18:01:51 10° S
Helios 1A Rocket 2.9 17:56:28 10° SSE 18:00:27 62° ENE 18:04:28 10° N
Cosmos 2322 Rocket 3.1 17:55:00 10° SW 18:00:28 52° NW 18:06:00 10° NNE
Lacrosse 4 Rocket 1.8 17:57:17 10° S 18:01:31 46° ESE 18:05:50 10° NE
GP-B 3.1 17:58:07 10° SSE 18:02:29 62° E 18:06:53 10° N
ARGOS 3.2 17:59:14 10° SSE 18:04:40 84° ENE 18:10:09 10° NNW
ERBS 4.0 18:03:44 10° WNW 18:06:33 25° N 18:09:21 10° NE
Cosmos 192 4.4 18:03:14 10° S 18:08:02 58° ESE 18:12:53 10° NNE
Cosmos 1869 Rocket 3.8 18:04:51 10° SSE 18:09:03 47° E 18:13:19 10° NNE
CZ-4B R/B 2.8 18:06:38 10° N 18:09:32 38° WNW 18:12:27 10° SW
CZ-4 R/B 2.3 18:06:18 10° S 18:10:07 52° W 18:14:01 10° NNW
Cosmos 2219 Rocket 2.3 18:05:21 10° S 18:10:44 52° ESE 18:16:12 10° NE
ERS-2 2.0 18:10:28 10° NNE 18:14:07 68° ESE 18:17:45 10° S
CZ-2C R/B 2.7 18:09:05 10° NNE 18:14:28 56° E 18:19:41 10° S
FALCON 9 DEB 3.1 18:11:22 10° WNW 18:14:29 65° SSW 18:16:46 17° SE
Cosmos 1689 Rocket 1.8 18:12:50 10° NNE 18:15:44 81° ESE 18:18:37 10° SSW
Cosmos 1238 Rocket 3.4 18:13:48 10° SSE 18:17:14 29° E 18:20:14 10° NNE
Cosmos 1378 3.3 18:14:30 10° N 18:18:08 47° ENE 18:21:43 10° SSE
SL-08 RB Rocket 3.7 18:15:02 10° SSE 18:19:35 84° ENE 18:24:13 10° NNW
USA 305 3.0 18:15:29 10° WNW 18:19:46 68° NNE 18:22:40 20° E
NOSS 3-2 (A) 3.9 18:18:14 10° S 18:23:19 36° ESE 18:29:03 10° NE
CREW DRAGON DEMO-1 DEB 3.7 18:20:49 10° SSW 18:23:19 28° SSE 18:23:59 25° ESE
FALCON 9 DEB 3.1 18:20:47 10° WNW 18:23:58 66° SSW 18:25:51 22° SE
HJ-1C 4.0 18:20:56 10° S 18:24:11 57° W 18:27:28 10° NNW
COSMOS 2428 2.8 18:19:56 10° S 18:25:28 57° ESE 18:31:03 10° NE
Cosmos 1733 Rocket 4.0 18:22:53 10° SE 18:26:28 26° E 18:30:05 10° NNE
SL-16 R/B 4.0 18:24:05 10° WSW 18:29:05 31° NW 18:34:07 10° NNE
USA 307 2.9 18:29:14 10° WNW 18:33:32 74° NNE 18:35:52 26° E
Meteor 2-20 4.5 18:27:41 10° N 18:33:44 58° ENE 18:39:46 10° SSE
Cosmos 2369 Rocket 4.1 18:30:36 10° N 18:33:44 15° NNE 18:36:12 12° ENE
SL-8 Rocket 3.9 18:28:15 10° S 18:34:29 87° E 18:40:42 10° N
USA 306 2.9 18:30:30 10° WNW 18:34:49 76° NNE 18:37:06 27° ESE
CENTAUR R/B 3.2 18:30:01 10° S 18:35:06 31° ESE 18:40:59 10° NE
Cosmos 1066 Rocket 4.2 18:30:43 10° N 18:36:31 82° ENE 18:42:22 10° SSE
Cosmos 1898 Rocket 4.0 18:31:35 10° NNW 18:36:31 40° ENE 18:39:11 23° ESE
ATLAS CENTAUR R/B 2.9 18:33:40 10° W 18:36:54 29° NW 18:40:13 10° NNE
NOSS 0 Rocket 4.3 18:31:19 10° S 18:36:55 39° ESE 18:42:33 10° NE
Cosmos 1743 3.2 18:37:26 10° SSE 18:40:59 36° E 18:44:36 10° NNE
Cosmos 1666 3.6 18:39:13 10° SSW 18:42:51 50° WNW 18:46:32 10° N
USA 308 2.8 18:40:04 10° WNW 18:44:22 81° NNE 18:46:15 32° ESE
CSL-04 Rocket 4.3 18:40:16 10° S 18:45:43 60° WSW 18:51:10 10° NNW
Cosmos 2322 3.9 18:40:43 10° SW 18:46:26 75° WNW 18:52:11 10° NNE
Meteor 1-23 Rocket 4.1 18:41:18 10° N 18:46:56 78° ENE 18:52:36 10° SSE
BREEZE-M DEB (TANK) 3.8 18:48:23 10° SW 18:50:06 28° S 18:50:06 28° S
GRACE-FO 1 4.4 18:47:11 10° S 18:50:47 69° E 18:54:27 10° N
ASTEX 1 3.3 18:46:02 10° NNE 18:50:54 63° E 18:55:44 10° S
GRACE-FO 2 4.4 18:47:35 10° S 18:51:12 69° E 18:54:53 10° N
Cosmos 2366 rocket 4.1 18:46:24 10° S 18:52:44 86° W 18:59:10 10° N
H-2A R/B 4.1 18:48:27 10° SSW 18:53:13 31° W 18:58:00 10° NNW
Cosmos 1674 Rocket 3.8 18:50:10 10° N 18:54:19 43° ENE 18:55:15 37° ESE
SJ-6B 2.7 18:52:44 17° SSE 18:55:47 83° ENE 18:59:48 10° NNW
Cosmos 990 Rocket 4.0 18:51:57 10° NNW 18:57:08 64° ENE 18:59:41 30° SE
Cosmos 2221 Rocket 3.5 18:53:54 10° N 18:58:22 87° E 19:02:10 14° S
Ariane Rocket 2.9 18:55:34 18° SSE 18:59:21 72° ENE 19:04:27 10° NNW
USA 186 2.0 18:59:36 40° SW 19:00:09 49° W 19:02:44 10° NNW
ARIANE 5 R/B 4.4 19:01:45 18° NE 19:01:45 18° NE 19:04:06 10° NNE
Cosmos 2297 4.5 18:55:50 10° NNW 19:01:06 35° NE 19:02:40 30° E
OBJECT-B 0.6 19:02:10 58° SSE 19:02:44 87° ENE 19:05:58 10° NNW
Cosmos 1763 Rocket 4.0 18:58:01 10° S 19:02:52 37° ESE 19:07:44 10° NE
NOSS 3-2 (C) 3.7 18:59:44 10° S 19:04:58 41° ESE 19:08:11 24° ENE
Okean 2 4.4 19:01:48 10° N 19:04:48 31° NE 19:04:48 31° NE
SL-08 R/B 4.5 18:59:20 10° S 19:05:46 77° E 19:12:16 10° NNE
Meteor 1-11 Rocket 4.0 19:01:08 10° SSW 19:06:46 68° WNW 19:12:20 10° N
Cosmos 1378 Rocket 3.7 19:04:28 10° N 19:08:50 52° ENE 19:09:21 49° ESE
Cosmos 2360 Rocket 4.0 19:06:12 10° WSW 19:11:12 31° NW 19:16:15 10° NNE
FALCON 9 DEB 4.4 19:10:48 10° W 19:13:35 28° SW 19:13:45 28° SSW
Cosmos 468 Rocket 4.1 19:09:25 10° S 19:14:30 48° ESE 19:19:35 10° NNE
Cosmos 1943 Rocket 3.1 19:09:27 10° NNW 19:14:31 32° NE 19:15:25 30° ENE
SJ 16-02 2.2 19:11:52 10° NNW 19:16:08 49° WSW 19:19:19 17° S
Cosmos 1727 Rocket 4.3 19:10:05 10° NNW 19:16:15 69° W 19:22:24 10° S
DMSP B5D2-2 4.3 19:11:37 10° N 19:16:50 72° WNW 19:22:00 10° SSW
Cosmos 1821 Rocket 3.9 19:10:48 10° S 19:16:57 68° E 19:23:03 10° NNE
Cosmos 2237 Rocket 2.2 19:12:19 10° S 19:17:52 57° ESE 19:23:27 10° NE
Cosmos 2278 Rocket 2.5 19:12:52 10° NW 19:18:30 65° WSW 19:22:11 22° S
Cosmos 1544 3.1 19:15:07 10° SSW 19:18:45 78° W 19:22:27 10° N
MOS 1 4.3 19:15:42 17° SSE 19:20:15 81° WSW 19:25:58 10° NNW
Cosmos 1000 Rocket 4.4 19:14:38 10° N 19:21:00 81° E 19:25:17 22° SSE
Cosmos 1536 4.0 19:17:27 10° SSW 19:21:15 42° WNW 19:25:04 10° N
SL-4 R/B 4.3 19:20:35 10° WSW 19:21:46 11° SW 19:22:55 10° SSW
Meteor 1-21 4.3 19:16:15 10° N 19:21:53 55° ENE 19:23:04 46° ESE
USA 81 3.9 19:17:25 10° S 19:22:41 79° E 19:27:57 10° N
SeaSat 1 2.5 19:18:33 10° NNE 19:23:31 76° WNW 19:28:26 10° SW
SPOT 3 Rocket 3.5 19:24:24 51° ESE 19:25:28 64° ENE 19:30:40 10° N
Cosmos 2239 Rocket 4.4 19:20:25 10° S 19:26:39 68° E 19:32:51 10° NNE
Cosmos 1934 Rocket 4.0 19:30:07 48° ESE 19:30:49 51° E 19:36:45 10° NNE
SME Rocket 4.1 19:23:42 10° NNE 19:31:27 82° WNW 19:36:28 10° SSW
Resurs 01 Rocket 1.6 19:31:41 66° NE 19:31:41 66° NE 19:35:53 10° N
SPOT 1/Viking Rocket 4.1 19:33:55 40° NE 19:33:55 40° NE 19:38:19 10° N
USA 234 3.4 19:33:09 45° ESE 19:34:22 50° SE 19:40:41 10° SSW
Gbstr 26 Del rocket 3.7 19:32:40 10° WNW 19:37:26 59° SSW 19:38:19 52° SSE
Cosmos 2333 Rocket 3.5 19:33:19 10° WSW 19:38:39 39° NW 19:44:03 10° NNE
Cosmos 1937 Rocket 3.3 19:34:02 10° NNW 19:39:14 85° ENE 19:39:50 70° SE
Cosmos 2123 Rocket 3.9 19:33:15 10° N 19:39:31 72° ENE 19:41:02 52° SE
Lacrosse 4 Rocket 3.4 19:36:25 10° WSW 19:40:23 31° NW 19:44:25 10° NNE
IGS 5A 4.3 19:44:27 42° N 19:44:27 42° N 19:47:19 10° N
ERBS 4.3 19:40:23 10° NW 19:42:16 24° NNW 19:42:16 24° NNW
USA 238 DEB 3.5 19:38:14 10° SW 19:44:50 88° SE 19:51:50 10° NE
USA 238 3.5 19:38:21 10° SW 19:44:57 88° SE 19:51:56 10° NE
Cosmos 1842 3.9 19:42:09 10° NNW 19:45:12 51° NNW 19:45:12 51° NNW
Resurs 1-3 4.1 19:45:27 46° SW 19:46:21 56° W 19:50:43 10° NNW
Cosmos 2219 Rocket 3.7 19:49:52 10° WSW 19:54:56 34° NW 20:00:04 10° NNE
Terra 3.7 20:00:53 19° NNE 20:00:53 19° NNE 20:02:41 10° N
USA 305 4.2 19:55:37 10° WNW 19:58:46 35° WSW 19:58:46 35° WSW
ERS-1 Rocket 4.3 20:03:06 30° NNE 20:03:06 30° NNE 20:06:04 10° N
Cosmos 1980 3.9 19:57:01 10° SW 20:02:39 70° WNW 20:08:19 10° NNE
Cosmos 1733 Rocket 4.5 20:00:04 10° SW 20:04:06 37° WNW 20:08:12 10° N
COSMOS 2428 4.3 20:04:58 10° WSW 20:10:04 33° NW 20:15:12 10° NNE
Meteor 2-9 Rocket 4.1 20:10:29 75° NW 20:10:29 75° NW 20:15:39 10° N
Spot 2 Rocket 4.2 20:14:35 48° N 20:14:35 48° N 20:18:19 10° NNW
NOSS 3-2 (A) 3.9 20:08:04 10° WSW 20:13:49 59° NW 20:20:33 10° NE
Cosmos 1605 Rocket 4.3 20:15:57 57° NE 20:15:57 57° NE 20:21:05 10° NNE
ATLAS CENTAUR R/B 4.1 20:15:52 10° NNW 20:16:58 11° NNW 20:17:48 10° N
Cosmos 2369 Rocket 3.0 20:13:45 10° NNW 20:18:00 42° NNE 20:18:00 42° NNE
CENTAUR R/B 2.8 20:19:03 10° SW 20:25:09 70° NW 20:32:31 10° NE
ARIANE 5 R/B 4.5 20:39:17 29° NNW 20:39:17 29° NNW 20:41:32 10° NNW
USA 281 4.0 20:54:08 42° NNE 20:54:08 42° NNE 20:59:06 10° NNW
NOSS 3-2 (C) 4.0 20:49:57 10° WSW 20:55:42 54° NW 20:55:55 54° NNW
Cosmos 1943 Rocket 3.3 20:53:03 10° NW 20:56:57 42° WNW 20:56:57 42° WNW
Cosmos 2237 Rocket 3.8 20:57:09 10° WSW 21:02:16 33° NW 21:07:24 10° NNE
Resurs 01 Rocket 4.3 21:09:14 15° WNW 21:09:14 15° WNW 21:11:09 10° NW
USA 234 4.3 21:20:31 36° W 21:20:31 36° W 21:24:07 10° WSW
Terra 4.4 21:39:46 17° NNW 21:39:46 17° NNW 21:40:53 10° NNW
Cosmos 2369 Rocket 4.5 21:58:05 10° NW 21:59:48 19° NW 21:59:48 19° NW
CENTAUR R/B 4.2 22:11:10 10° WNW 22:17:08 33° NNW 22:24:04 10° NE
ATLAS 3B R/B 4.5 23:35:00 25° NNE 23:35:00 25° NNE 23:38:21 10° NE
